Airfield :
LOGIN :

Register | Disclaimer

   EN    FR    IT 

 










Legend :    VFR   Marginal VFR   IFR   Intensive IFR   Very Intensive IFR
Visi :
Ceiling :
>= 8 km
>= 3000ft
5 to 8 km
1000 to 3000 ft
1500m to 5 km
500 to 1000 ft
800 to 1500m
200 to 500 ft
< 800m
< 200 ft
Symbols :   Thunderstorms  Fog  Heavy snow  Heavy precipitations  Wind > 20 kt
SIGMETs :     Misc.  Thunderstorms  Icing  Turbulence  Mountain Waves  Volcanic Ashes







- Airport Elevation : 300 ft
- IATA code : MLA


LMML - Malta Luqa

CURRENT METAR :
  • 211445Z 22007KT CAVOK 32/12 Q1014 NOSIG

EXPIRED METARs :
  • 211415Z 21006KT 180V260 CAVOK 33/13 Q1015 NOSIG
  • 211345Z 21006KT 180V270 CAVOK 32/15 Q1015 NOSIG
  • 211315Z 24008KT CAVOK 32/15 Q1015 NOSIG
  • 211245Z 25007KT CAVOK 32/14 Q1016 NOSIG
  • 211215Z 25009KT CAVOK 32/16 Q1016 NOSIG

TAF TAF LMML
Valid from the 21 at 06:00 until the 22 at 06:00 UTC


211100Z 2106/2206 21007KT CAVOK
No reported NOTAMs for that airfield.



MET'MAP, your aeronautical weather chart ! - Copyright ORBIFLY December 2007 - Disclaimer

ORBIFLY MET'MAP TEAM :

Programming & Development : Alexandra Zaïnal
Concept & Development : Baudouin d'Aumeries
Co-Development & Prog : Marc-Olivier Méhu
Technical & hardware support : Manuel Goepfert

Contact : metmap@orbifly.com




SOURCES & CREDITS :

   NOAA